TIME,DELAY(SENSOR),PRES,T(CTD),SAL,OXYGEN,RAWTEMP,T(OPTODE),TCPHASE,FLUOR,BETA(BETA700),BETA(BETA412),BETA(BETA440),CDOM,C(CSC),ED(ED412.40),ED(ED444.00),ED(ED489.70),ED(ED554.30),LU(LU411.80),LU(LU443.40),LU(LU489.60),LU(LU554.10),COMP,TILTX,TILTX(TILTY),CHECK
1343942875,5808,497.7399902343750000,7.1427998542785645,34.1941986083984400,70.7525329589843800,583.1188964843750000,7.1282482147216800,49.7898902893066400,52,105,92,80,78,15347,2147751771,2147422345,2148004022,2147871396,2147629970,2147076845,2148242075,2147200649,1651,4,13,31829
1343943034,5807,484.6799926757812500,7.4200000762939450,34.1753005981445300,79.4769897460937500,574.8475952148438000,7.3938307762146000,48.6045417785644500,51,105,89,80,78,15343,2147753801,2147422317,2147999085,2147873252,2147627492,2147085915,2148238180,2147199689,2939,5,13,55348
1343943139,5808,474.2799987792969000,7.5272002220153810,34.1772003173828100,84.8505172729492200,571.1511840820312000,7.5123229026794430,47.9195404052734400,51,106,87,81,80,15346,2147749156,2147420736,2147999204,2147871012,2147628297,2147086482,2148240310,2147196333,3475,4,13,23805
1343943254,5810,462.3800048828125000,7.6793999671936035,34.1475982666015600,96.7835311889648400,566.0089111328125000,7.6769618988037110,46.5045509338378900,51,107,91,82,79,15346,2147750052,2147420096,2147999945,2147873124,2147628233,2147086153,2148238692,2147201545,137,4,12,57219
1343943371,5811,450.5799865722656000,7.9524998664855960,34.1456985473632800,109.5345993041992200,557.2764892578125000,7.9560241699218750,45.0314292907714840,51,108,92,81,78,15343,2147746880,2147422509,2148004022,2147871643,2147622774,2147082550,2148233956,2147199195,234,5,13,22780
1343943474,5807,440.2300109863281000,8.1681995391845700,34.1562995910644500,111.2258987426757800,550.8571777343750000,8.1607542037963870,44.7565116882324200,50,106,88,80,78,15342,2147747136,2147422171,2148001691,2147872402,2147622473,2147084297,2148238409,2147204370,1259,4,13,8005
1343943589,5807,428.9200134277344000,8.4183998107910160,34.1529006958007800,117.7622985839843800,543.4635009765625000,8.3961391448974610,43.9905586242675800,51,106,89,81,76,15340,2147747858,2147421193,2148000996,2147875456,2147619437,2147088585,2148237174,2147203254,1188,4,13,18073
1343943706,5809,417.7999877929687500,8.7473001480102540,34.1389999389648440,131.3795013427734400,532.8593750000000000,8.7329597473144530,42.5388183593750000,50,106,92,81,76,15346,2147744393,2147419227,2148000192,2147874505,2147621220,2147092160,2148231451,2147200612,892,4,13,51453
1343943821,5809,407.5000000000000000,8.8591995239257810,34.1170005798339840,151.7476043701172000,529.2979736328125000,8.8458843231201170,40.7406196594238300,50,104,87,79,75,15351,2147746176,2147420041,2148001947,2147870153,2147620699,2147091401,2148226706,2147207552,692,5,13,19276
1343943950,5808,396.4800109863281000,9.1641998291015620,34.1123008728027340,170.7420043945312500,519.8895874023438000,9.1437358856201170,39.1254310607910160,50,106,88,80,73,15349,2147743177,2147420553,2148002148,2147873133,2147618742,2147097755,2148230299,2147205440,1197,4,13,14581
1343944089,5807,385.5599975585937500,9.3680000305175780,34.1128997802734400,181.8950042724609400,513.1895141601562000,9.3554439544677730,38.2261695861816400,50,104,90,79,73,15351,2147741979,2147421046,2148000283,2147872054,2147614985,2147100946,2148226998,2147201810,2047,4,13,27485
1343944228,5805,375.0400085449219000,9.5705003738403320,34.1240997314453100,186.4237060546875000,506.8422851562500000,9.5557012557983400,37.8115806579589840,50,104,92,80,74,15350,2147741504,2147419712,2148000804,2147874450,2147615378,2147102994,2148222345,2147201682,2921,4,13,51839
1343944364,5807,363.2099914550781000,9.8015003204345700,34.1300010681152340,190.3869018554687500,499.4280090332031000,9.7892570495605470,37.4239692687988300,49,107,90,80,72,15347,2147742134,2147421357,2147998464,2147874715,2147615030,2147102354,2148229129,2147205101,560,4,13,36292
1343944479,5810,351.4100036621094000,10.3907003402709960,34.1459007263183600,201.8731994628906200,480.2878112792969000,10.3904600143432620,36.3773918151855500,48,110,88,80,71,15347,2147742537,2147423533,2147998336,2147876891,2147614080,2147103890,2148222144,2147205622,1466,4,13,39937
1343944596,5807,339.0000000000000000,10.7316999435424800,34.1627998352050800,205.9931945800781200,469.5130920410156000,10.7278404235839840,35.9496116638183600,49,108,89,81,72,15346,2147738249,2147423817,2148000182,2147874468,2147608722,2147106331,2148222500,2147204406,1714,4,13,38898
1343944699,5809,328.2099914550781000,10.9433002471923830,34.1725006103515600,200.0632934570312500,462.9585876464844000,10.9327201843261720,36.2013092041015600,48,106,91,80,71,15345,2147736795,2147422400,2148001078,2147876818,2147609609,2147105792,2148218953,2147204306,964,4,13,16351
1343944814,5809,316.5000000000000000,11.3805999755859380,34.1848983764648440,200.9754943847656200,448.7073059082031000,11.3773202896118160,35.9123115539550800,49,108,92,81,71,15341,2147735424,2147423469,2147999634,2147872630,2147609115,2147106989,2148220745,2147205851,788,4,13,47109
1343944968,5808,305.1099853515625000,12.1358003616333000,34.2218017578125000,202.6123046875000000,424.8129882812500000,12.1202201843261720,35.4273109436035160,48,106,89,80,70,15341,2147736813,2147422253,2148003328,2147875300,2147598884,2147116873,2148214628,2147207515,327,4,14,2834
1343945247,5808,294.7399902343750000,12.8271999359130860,34.2621994018554700,201.7274017333984400,402.6046142578125000,12.8081197738647460,35.1296882629394500,49,107,90,81,70,15341,2147732169,2147424530,2148001014,2147873627,2147600128,2147125906,2148208155,2147207158,2012,3,14,15038
1343945442,5810,282.8800048828125000,13.4870996475219730,34.3213005065918000,203.6903076171875000,381.1643981933594000,13.4701499938964840,34.6782989501953100,49,105,86,82,70,15340,2147731053,2147423862,2148006299,2147875931,2147596909,2147126765,2148205540,2147212306,595,4,13,24241
1343945601,5809,270.8099975585937500,14.4708003997802730,34.4117012023925800,208.8529052734375000,348.8666076660156000,14.4641199111938480,33.8850708007812500,49,107,92,80,69,15342,2147728155,2147440960,2148059483,2147875648,2147588534,2147145947,2148230089,2147211547,461,4,13,23085
1343945716,5811,260.6300048828125000,15.1448001861572270,34.4807014465332000,209.0216064453125000,326.5506896972656000,15.1489696502685550,33.5427207946777340,48,105,88,80,68,15337,2147724406,2147430939,2148016758,2147874468,2147585600,2147143030,2148202834,2147211373,1853,3,14,40509
1343945857,5808,249.1600036621093800,16.1256008148193360,34.5866012573242200,210.1239013671875000,294.4082031250000000,16.1332798004150400,33.0104293823242200,49,104,88,80,66,15336,2147719433,2147430921,2148012580,2147875392,2147582985,2147148278,2148196635,2147211565,1401,3,14,51398
1343945996,5805,239.1100006103515600,16.9218997955322270,34.6780014038085940,210.8737945556640600,267.8779907226562500,16.9443893432617200,32.5878791809082000,50,109,93,81,66,15331,2147718107,2147432201,2148015076,2147871067,2147578925,2147156608,2148193252,2147210971,268,3,15,29708
1343946167,5808,225.9100036621093800,17.9109992980957030,34.7907981872558600,210.2698059082031200,237.0155944824218800,17.8870906829834000,32.1865005493164060,55,106,91,81,65,15324,2147717165,2147435611,2148024777,2147873334,2147574016,2147166400,2148193243,2147209115,874,3,14,41405
1343946294,5809,215.2899932861328000,18.6660003662109380,34.8748016357421900,210.5816040039062500,211.7714996337890600,18.6580200195312500,31.8189392089843750,60,107,89,82,67,15321,2147717577,2147453613,2148049773,2147871899,2147569581,2147181604,2148203766,2147213686,2886,3,14,56888
1343946421,5810,204.5800018310547000,19.2865009307861330,34.9197998046875000,209.3562011718750000,191.3473968505859400,19.2819404602050780,31.6059303283691400,62,112,92,84,67,15311,2147725366,2147472877,2148091282,2147869632,2147570569,2147194742,2148217764,2147214637,3228,3,14,22873
1343946520,5811,197.9400024414062500,19.8320007324218750,34.9723014831543000,209.8527069091797000,172.8567047119140600,19.8471508026123050,31.3274192810058600,66,114,91,83,64,15306,2147724178,2147487296,2148117586,2147869869,2147569801,2147209069,2148227264,2147219821,2827,3,15,32293
1343946587,5804,193.9400024414062500,20.1842002868652340,35.0050010681152340,211.4367980957031200,164.9481048583984400,20.0890293121337900,31.1347503662109380,69,116,90,83,64,15299,2147731849,2147501760,2148145234,2147871963,2147572653,2147218889,2148232466,2147221915,3001,3,15,62464
1343946654,5807,189.9700012207031200,20.3498001098632800,35.0227012634277340,211.2610015869140600,156.9154968261718800,20.3348197937011720,31.0362205505371100,70,117,91,81,64,15303,2147741339,2147521700,2148179721,2147872841,2147570505,2147230400,2148247561,2147223744,3550,3,15,22438
1343946721,5806,185.4900054931640600,20.3486003875732420,35.0224990844726560,211.7498016357422000,156.3482971191406200,20.3521804809570300,31.0026302337646500,74,116,89,80,65,15301,2147754459,2147566646,2148249938,2147871936,2147578651,2147257974,2148277915,2147225892,3202,3,15,53700
1343946799,5803,180.3699951171875000,20.5501003265380860,35.0392990112304700,211.7662048339843800,151.3462066650390600,20.5053005218505860,30.9348392486572270,75,118,90,82,64,15296,2147785856,2147635090,2148363693,2147869906,2147589293,2147295314,2148330816,2147228205,2994,3,15,63587
1343946866,5808,176.6100006103515600,20.6676006317138670,35.0550994873046900,212.6450042724609400,146.6121978759765600,20.6502609252929700,30.8245906829834000,77,118,93,81,64,15290,2147816374,2147702363,2148477860,2147872804,2147602038,2147328219,2148380306,2147232420,3516,2,15,42544
1343946945,5808,172.6199951171875000,20.7609996795654300,35.0663986206054700,213.6501007080078000,143.3450012207031200,20.7503299713134770,30.7273292541503900,79,115,89,82,64,15295,2147852333,2147770870,2148584073,2147875556,2147613750,2147369170,2148427318,2147238692,3557,2,15,56102
1343947036,5807,168.6399993896484400,20.8722991943359380,35.0811004638671900,214.3849945068359400,139.5930023193359400,20.8652801513671880,30.6388206481933600,81,116,89,82,64,15283,2147885138,2147829449,2148665417,2147874221,2147629696,2147394395,2148462134,2147240192,3372,3,16,3526
1343947141,5808,165.1100006103515600,21.0004005432128900,35.0943984985351560,215.5408020019531200,135.5496063232422000,20.9892005920410160,30.5245399475097660,83,115,88,82,64,15288,2147923638,2147873014,2148718198,2147873728,2147643172,2147421504,2148488850,2147245504,3488,2,15,60321
1343947292,5808,161.2599945068359400,21.1574001312255860,35.1096992492675800,217.0727996826172000,130.3592987060547000,21.1483192443847660,30.3763694763183600,86,119,91,82,63,15281,2147952009,2147896512,2148722688,2147874724,2147660397,2147436918,2148490450,2147243108,3058,2,15,13551
1343947438,5806,156.6999969482422000,21.3260993957519530,35.1105003356933600,218.0039978027343800,124.8097000122070300,21.3185291290283200,30.2553901672363280,89,119,92,84,63,15278,2148040082,2147988918,2148826633,2147878646,2147689718,2147481042,2148534464,2147247954,323,3,15,60394
1343947529,5804,152.5800018310547000,21.7140998840332030,35.1343994140625000,218.8540954589843800,112.8964004516601600,21.6842193603515620,30.0558605194091800,97,121,89,82,62,15264,2148134043,2148105728,2148967716,2147875154,2147728530,2147540708,2148595456,2147255981,568,2,16,33891
1343947620,5811,149.0200042724609400,21.8201999664306640,35.1418991088867200,220.9828033447265600,108.7890014648437500,21.8103904724121100,29.8943805694580080,101,120,91,83,62,15261,2148237156,2148217280,2149095661,2147875364,2147767817,2147589110,2148645403,2147259657,682,2,15,9389
1343947701,5807,145.9799957275390600,21.9729003906250000,35.1498985290527340,222.0503997802734400,103.4369964599609400,21.9748802185058600,29.7715606689453120,105,123,89,83,62,15257,2148332470,2148326793,2149230838,2147880374,2147807314,2147650322,2148697033,2147262162,266,2,16,62694
1343947852,5807,142.8300018310547000,22.4228992462158200,35.1852989196777340,224.6011962890625000,89.3439331054687500,22.4084606170654300,29.4633293151855470,122,127,91,82,63,15222,2148477686,2148494208,2149430198,2147878061,2147863305,2147730468,2148782994,2147271862,2189,2,16,64239
1343948219,5808,138.6999969482422000,23.0995006561279300,35.1754989624023440,231.4971923828125000,68.0028762817382800,23.0664196014404300,28.8589305877685550,133,120,90,83,62,15220,2149334061,2149562861,2150792521,2147892736,2148208128,2148220470,2149338468,2147318034,2049,2,16,18305
1343948454,5807,134.1399993896484400,23.4983997344970700,35.2065010070800800,236.0531005859375000,54.3554801940918000,23.4881591796875000,28.4752902984619140,125,119,92,83,60,15231,2150096438,2150416301,2151781933,2147900041,2148548854,2148624694,2149746752,2147360027,1391,2,16,63471
1343948593,5807,130.2700042724609400,23.7441997528076170,35.2211990356445300,236.7615051269531200,47.1030197143554700,23.7126197814941400,28.3519802093505860,124,118,91,83,62,15224,2150657801,2150985417,2152359661,2147908672,2148820562,2148903762,2149986889,2147381677,1153,2,16,65499
1343948719,5808,125.8000030517578100,23.8223991394042970,35.2197990417480500,238.5852050781250000,43.9708518981933600,23.8096294403076170,28.2300605773925780,127,120,90,83,60,15210,2151994038,2152451849,2153971904,2147924489,2149452672,2149603602,2150662226,2147444105,166,3,15,57973
1343948810,5808,122.1699981689453100,24.1492996215820300,35.1958999633789060,238.3262939453125000,33.4107704162597660,24.1370506286621100,28.1104507446289060,124,121,91,85,60,15196,2153541549,2154175680,2155831817,2147944603,2150208109,2150429851,2151466861,2147514569,2726,2,16,36032
1343948937,5814,119.5699996948242200,24.4673995971679700,35.1679992675781250,239.0227050781250000,23.6274394989013670,24.4409008026123050,27.9579906463623050,119,121,93,83,59,15211,2154769097,2155526701,2157239872,2147964306,2150878656,2151129133,2152126985,2147579364,1810,2,16,45352
1343949123,5806,115.4000015258789000,24.7472991943359380,35.1496009826660160,239.4450988769531200,14.2375898361206050,24.7329998016357420,27.8230495452880860,96,121,92,85,58,15219,2156189942,2157031542,2158663277,2147988644,2151907712,2152141019,2152989138,2147654281,508,2,16,65063
1343949321,5810,110.6200027465820300,24.8297004699707030,35.1463012695312500,239.9266052246093800,11.4491395950317380,24.8198299407959000,27.7672901153564450,87,123,91,83,59,15217,2157701110,2158559561,2159956544,2148019364,2153207076,2153357632,2153916196,2147728320,160,2,16,18323
1343949412,5809,107.0100021362304700,24.9930992126464840,35.1343002319335940,239.8809967041015600,6.7386841773986820,24.9666194915771500,27.7112998962402340,81,126,93,85,58,15213,2159276205,2160223552,2161506075,2148055232,2154569462,2154684928,2154962221,2147823259,384,2,16,56235
1343949515,5810,102.9700012207031200,25.1299991607666000,35.1250991821289060,239.7718963623047000,2.1166379451751710,25.1107807159423830,27.6593608856201170,80,126,93,86,58,15215,2159549147,2160322057,2161282450,2148071104,2155165494,2155113161,2155105225,2147830646,1683,2,16,2394
1343949629,5807,97.9899978637695300,25.2087001800537100,35.1208992004394500,239.7779998779297000,-0.6648302078247070,25.1975898742675780,27.6251602172851560,77,125,91,86,57,15206,2160998180,2161726473,2162388745,2148120886,2156653933,2156442962,2155997659,2147907995,2162,2,16,42302
1343949684,5808,95.0100021362304700,25.2658996582031250,35.1180992126464840,239.4685058593750000,-2.6416180133819580,25.2593193054199220,27.6144905090332030,74,123,94,85,58,15206,2162263808,2163024137,2163522560,2148161005,2157883492,2157585481,2156798601,2147976795,2334,2,16,31802
1343949739,5805,92.2500000000000000,25.3498001098632800,35.1180000305175800,239.0160980224609400,-5.4969458580017090,25.3485202789306640,27.5996894836425780,75,122,93,84,56,15211,2163638226,2164385289,2164769462,2148215753,2159205275,2158824310,2157688969,2148059785,2096,2,16,12323
1343949794,5807,89.7099990844726600,25.4071998596191400,35.1166992187500000,239.2028961181640600,-7.0469050407409670,25.3969593048095700,27.5723590850830080,71,124,90,85,59,15193,2164949586,2165710829,2166002569,2148275684,2160600749,2160124681,2158613979,2148136905,1744,2,17,716
1343949849,5809,87.3499984741211000,25.4228992462158200,35.1165008544921900,239.2642059326172000,-7.6830182075500490,25.4168395996093750,27.5618400573730470,69,125,94,86,58,15203,2166305298,2167084955,2167296722,2148345398,2162077558,2161506733,2159579702,2148222436,1456,2,16,37802
1343949904,5807,85.0199966430664000,25.4379997253417970,35.1175003051757800,239.2384033203125000,-8.1476116180419920,25.4313697814941400,27.5571708679199220,71,123,94,85,55,15205,2167737572,2168538532,2168649225,2148429906,2163653156,2162974381,2160599341,2148315968,1320,2,16,2877
1343949961,5804,82.5899963378906200,25.4608001708984380,35.1178016662597660,239.2673950195312500,-8.8940706253051760,25.4547100067138670,27.5468807220459000,70,124,94,85,57,15199,2169368082,2170187684,2170180717,2148522779,2165438317,2164616475,2161741549,2148420708,1085,2,16,63035
1343950016,5806,80.2500000000000000,25.4708995819091800,35.1181983947753900,239.4040069580078000,-9.3145065307617190,25.4678497314453120,27.5357093811035160,69,122,91,86,58,15185,2170704566,2171514816,2171366985,2148607872,2167014473,2166042084,2162697499,2148510272,793,2,16,5857
1343950071,5806,77.9300003051757800,25.4932003021240230,35.1184997558593750,239.4729003906250000,-9.9302616119384770,25.4871101379394530,27.5250701904296880,67,126,92,85,58,15199,2172226697,2173027794,2172734125,2148722331,2168738313,2167602221,2163734701,2148608384,303,1,16,58594
1343950126,5808,75.5800018310546900,25.5137004852294920,35.1190986633300800,239.2550048828125000,-10.5593900680542000,25.5067901611328120,27.5269603729248050,67,124,91,85,57,15193,2173912612,2174718034,2174285650,2148853321,2170677641,2169365897,2164937005,2148723556,3399,2,16,28592
1343950181,5810,73.2099990844726600,25.5349998474121100,35.1206016540527340,239.2440032958984400,-11.2497901916503900,25.5283794403076170,27.5189895629882800,67,122,94,84,59,15194,2175997979,2176808530,2176209371,2149014957,2172928237,2171407808,2166334454,2148867492,3056,2,16,31171
1343950236,5810,70.9000015258789000,25.5524997711181640,35.1216011047363300,239.2686004638672000,-12.0569295883178710,25.5536308288574220,27.5081501007080080,65,125,93,86,56,15187,2178075236,2178857225,2178112694,2149211620,2175197732,2173449225,2167741321,2149013531,2584,2,16,61751
1343950293,5809,68.5299987792968800,25.6021003723144530,35.1242980957031250,239.4405975341797000,-13.3143100738525390,25.5929794311523440,27.4850807189941400,65,123,93,84,56,15194,2180071332,2180799652,2179892964,2149410880,2177499739,2175511844,2169120228,2149165787,2282,2,16,58030
1343950348,5809,66.2900009155273400,25.6131000518798830,35.1248016357421900,239.2760009765625000,-13.7502803802490230,25.6066207885742200,27.4868507385253900,64,126,94,87,57,15192,2182125632,2182821732,2181747099,2149665965,2179846518,2177599908,2170506587,2149323218,2412,2,17,10999
1343950403,5808,64.0899963378906200,25.6553001403808600,35.1282005310058600,238.9143981933593800,-15.1380701065063480,25.6500701904296880,27.4860191345214840,63,122,92,84,58,15193,2184350619,2185045979,2183803776,2149939858,2182458020,2179924452,2172062674,2149501833,3081,2,16,35166
1343950458,5807,62.0099983215332000,25.6746997833251950,35.1315002441406250,238.7507019042968800,-15.8557100296020500,25.6725406646728500,27.4845409393310550,63,123,93,86,55,15184,2186779894,2187455643,2186061714,2150254034,2185262107,2182432100,2173745673,2149698779,2901,2,16,54622
1343950513,5808,59.9199981689453100,25.6979007720947270,35.1341018676757800,238.3950958251953000,-16.5635204315185550,25.6947002410888670,27.4917907714843750,63,125,96,86,60,15190,2189624064,2190327058,2188745801,2150683986,2188518134,2185336310,2175719497,2149946267,2628,2,16,61161
1343950568,5807,57.8400001525878900,25.7089996337890620,35.1356010437011700,238.4123992919922000,-16.8792095184326170,25.7045898437500000,27.4871406555175780,62,122,93,85,59,15187,2192786029,2193497691,2191734409,2151181641,2192198034,2188598217,2177934802,2150221787,2296,2,16,36110
1343950646,5810,54.2599983215332000,25.7537994384765620,35.1404991149902340,238.3451995849609400,-18.3279705047607420,25.7499694824218750,27.4724197387695300,62,122,95,85,59,15189,2199683520,2200463515,2198347593,2152326326,2200270244,2195760027,2182807442,2150850176,2197,2,16,7518
1343950701,5808,51.1699981689453100,25.8054008483886720,35.1445999145507800,238.0070953369140600,-20.0267295837402340,25.8031902313232420,27.4666404724121100,61,122,95,84,58,15178,2205396489,2206244434,2203901156,2153561188,2207429869,2202083026,2187075163,2151460809,2155,2,16,36670
1343950756,5814,48.1300010681152340,25.8383998870849600,35.1456985473632800,237.7807006835937500,-21.2137908935546880,25.8404006958007800,27.4621505737304700,60,121,91,87,57,15177,2211488347,2212374966,2209838089,2154984713,2215102482,2208823643,2191541577,2152122285,1791,2,16,31128
1343950811,5809,45.1199989318847660,25.8948993682861330,35.1509017944335940,237.3200988769531200,-22.8377990722656250,25.8913097381591800,27.4629592895507800,60,119,95,84,60,15179,2217538139,2218503725,2215870326,2156700626,2223444992,2216062381,2196375881,2152890989,1451,2,17,8049
1343950866,5808,42.0499992370605500,25.9153995513916000,35.1525001525878900,237.0756988525390600,-23.4874897003173830,25.9116897583007800,27.4658794403076170,58,121,93,85,61,15170,2223935899,2225007542,2222299529,2159003136,2232854427,2224144813,2201621385,2153815305,1608,2,17,30799
1343950921,5816,38.9300003051757800,25.9251003265380860,35.1539993286132800,236.8489990234375000,-23.8359298706054700,25.9226207733154300,27.4718208312988280,57,122,93,85,57,15173,2230567725,2231777590,2229104237,2161787547,2242766985,2232609124,2207176749,2154879131,1825,2,16,5893
1343950978,5807,35.6399993896484400,25.9249000549316400,35.1548004150390600,236.9042968750000000,-23.9139194488525400,25.9250602722167970,27.4684295654296880,57,120,92,85,55,15170,2239507483,2240939465,2238267876,2165556480,2255500653,2243539675,2214369426,2156300032,1935,2,16,23191
1343951033,5806,32.4000015258789060,25.9286994934082030,35.1545982360839840,236.8256988525390600,-24.0342998504638670,25.9288406372070300,27.4704399108886720,56,120,93,86,55,15173,2249049435,2250746084,2248251108,2170539446,2269231241,2255335305,2222219108,2158080329,2020,2,17,40410
1343951088,5808,29.1100006103515620,25.9316997528076170,35.1543998718261700,236.9427947998047000,-24.1809406280517580,25.9334392547607420,27.4634494781494140,55,120,91,84,56,15171,2261312548,2263380973,2261169682,2177087844,2287524141,2271140452,2232792054,2160432484,1917,2,16,7984
1343951143,5806,25.7099990844726560,25.9325008392334000,35.1547012329101560,237.0314941406250000,-24.2782993316650400,25.9364891052246100,27.4582405090332030,56,122,93,86,59,15177,2274370834,2276865865,2275113755,2187180955,2306100717,2287368429,2243699721,2163500827,1895,2,16,46084
1343951198,5807,22.2999992370605470,25.9361991882324220,35.1549987792968750,237.0608062744140600,-24.3869705200195300,25.9398994445800780,27.4555892944335940,56,121,93,84,58,15170,2289714688,2292861101,2291871177,2199574528,2329486646,2307376740,2257234806,2167576996,1942,3,16,57263
